Flag for Austria Weather past 2 weeks in Bruck an der Leitha, Lower Austria, Austria

Now
67 °F

Sprinkles. Low clouds.


Feels Like: 67 °F
Forecast: 65 / 82 °F
Wind: 3 mph from North

Location: Wien / Schwechat-Flughafen

Current Time: Jul 31, 2014 at 11:01:13 AM

Latest Report: Jul 31, 2014 at 10:00 AM


Visibility: 2 mi

Pressure: 29.83 "Hg

Humidity: 97%

Dew point: 66 °F

Location of Bruck an der LeithaLocation

Historic Weather in Bruck an der Leitha — Graph

°F

Bruck an der Leitha temperature yesterday

Maximum temperature yesterday: 80 °F (at 2:00 PM)
Minimum temperature yesterday: 65 °F (at 6:00 AM)
Average temperature yesterday: 70 °F

Past Weeks' High & Low Weather Summary

 TemperatureHumidityPressure
High89 °F (Jul 20, 4:00 PM)100% (Jul 31, 4:00 AM)30.12 "Hg (Jul 31, 4:00 AM)
Low58 °F (Jul 26, 5:00 AM)29% (Jul 17, 4:00 PM)29.69 "Hg (Jul 21, 4:00 PM)
Average72 °F71%29.89 "Hg
* Reported Jul 16 9:00 AM — Jul 31 9:00 AM, Bruck an der Leitha, Weather by CustomWeather, © 2014

Note: Actual official high and low records may vary slightly from our data, if they occured in-between our weather recording intervals... More about our weather records

Advertising

Bruck an der Leitha weather history for previous 24 hours

 ConditionsComfort  
Time TempWeatherWind HumidityBarometerVisibility
9:00 AM
Jul 31
66 °FLow clouds.N/A97%29.82 "Hg3 mi
8:00 AM66 °FLow clouds.N/A98%29.81 "Hg2 mi
7:00 AM65 °FLight rain. Low clouds.N/A99%29.79 "Hg1 mi
6:00 AM65 °FLow clouds.N/A98%29.78 "Hg1 mi
5:00 AM64 °FOvercast.N/A99%29.78 "Hg2 mi
4:00 AM64 °FLight rain. Low clouds.N/A100%29.77 "Hg0 mi
3:00 AM65 °FLow clouds.N/A98%29.76 "Hg2 mi
2:00 AM65 °FOvercast.N/A98%29.78 "Hg4 mi
1:00 AM66 °FLight rain. Overcast.N/A97%29.77 "Hg4 mi
12:00 AM65 °FLight rain. Overcast.6 mph96%29.72 "Hg5 mi
11:00 PM
Jul 30
66 °FSprinkles. Overcast.5 mph98%29.72 "Hg4 mi
10:00 PM66 °FThundershowers. Low clouds.5 mph95%29.76 "Hg5 mi
9:00 PM66 °FLow clouds.9 mph96%29.74 "Hg2 mi
8:00 PM69 °FThundershowers. Overcast.N/A96%29.72 "Hg2 mi
7:00 PM70 °FThundershowers. Overcast.N/A91%29.72 "Hg5 mi
6:00 PM72 °FRain showers. Overcast.N/A83%29.73 "Hg10 mi
5:00 PM72 °FOvercast.N/A84%29.72 "Hg10 mi
4:00 PM72 °FOvercast.N/A83%29.72 "Hg9 mi
3:00 PM71 °FOvercast.3 mph83%29.74 "Hg13 mi
2:00 PM80 °FOvercast.5 mph63%29.72 "Hg15 mi
1:00 PM78 °FOvercast.5 mph63%29.74 "Hg16 mi
12:00 PM78 °FOvercast.5 mph65%29.75 "Hg14 mi
11:00 AM76 °FOvercast.6 mph68%29.74 "Hg16 mi
Weather by CustomWeather, © 2014

See weather overviewHow to use our weather pages